Probability
39 52 45 39 58 65 74 74 71 74 74 74 71 68 68 65 65 71 58 58 65 65 71 58 71 71 65 58 58 61 48 48 48 45 42 35 29 35 39 35 32 29 29
45 45 52 52 58 68 74 74 74 71 71 71 68 68 61 58 58 58 68 61 65 71 55 71 61 68 61 58 58 58 65 58 45 42 39 39 35 39 23 35 29 32 29
45 48 58 48 45 58 65 68 71 65 65 65 61 65 68 65 58 61 65 61 61 68 68 68 58 65 58 55 61 61 58 55 48 45 45 39 19 35 35 39 32 32 29
39 45 45 55 48 58 68 71 71 71 68 68 61 65 61 58 61 61 58 65 58 61 58 58 58 61 58 61 55 55 58 55 52 55 55 52 45 35 29 29 29 23 19
29 39 45 55 58 55 61 71 71 68 71 71 71 71 68 71 65 61 58 65 58 52 48 48 52 55 61 55 58 55 55 55 52 48 52 42 45 35 23 19 26 35 29
23 35 45 48 52 58 58 71 71 71 71 68 68 68 71 68 61 61 65 65 65 55 52 45 48 52 55 58 58 58 55 52 55 52 45 39 39 39 26 19 19 16 32
23 29 42 48 48 58 55 65 71 71 68 68 65 71 68 68 65 61 55 65 61 55 58 52 52 52 48 52 55 61 61 52 55 48 48 39 29 35 32 23 19 19 26
26 35 45 45 48 45 52 61 68 71 71 65 65 68 71 68 58 65 58 58 55 58 58 61 58 48 48 45 52 52 48 48 48 35 45 42 39 35 35 32 29 16 16
19 26 35 45 42 45 52 61 65 68 68 61 68 71 71 65 65 65 65 58 58 52 61 58 58 52 55 48 42 48 52 48 48 42 39 35 42 39 42 32 29 13 6
23 26 35 42 42 42 45 61 58 61 65 58 65 55 61 65 65 65 61 61 65 58 61 61 58 55 48 45 45 45 42 45 45 39 39 35 32 32 35 35 32 35 19
26 26 32 39 39 39 39 48 55 58 55 55 58 55 58 68 68 65 65 71 65 61 61 65 61 58 48 48 45 48 42 42 32 39 35 39 35 35 29 32 29 29 26
19 19 32 32 35 35 39 42 48 55 55 52 48 52 55 61 65 65 71 71 71 68 61 61 61 48 39 42 39 35 39 39 35 32 35 32 26 29 26 29 26 26 19
16 23 32 35 29 32 35 39 39 39 45 48 48 48 55 61 61 61 68 71 68 68 65 61 58 48 42 39 35 35 29 32 32 32 32 32 29 29 29 26 19 19 16
19 23 32 42 42 42 35 29 32 32 35 39 48 48 48 52 61 58 61 65 65 68 65 58 55 48 35 29 32 32 35 35 32 29 26 23 23 23 23 16 16 16 19
23 26 26 35 35 35 35 35 32 42 32 35 42 52 52 55 52 61 61 65 61 45 55 52 48 39 29 23 19 26 29 32 26 23 23 23 13 10 10 10 13 10 10
19 29 29 29 32 39 39 35 32 39 35 42 45 42 45 52 55 61 58 65 61 55 58 58 42 35 19 16 13 19 29 32 29 23 19 19 10 6 6 6 0 6 6
23 26 35 32 39 42 39 45 42 35 39 42 45 42 45 45 48 42 61 58 55 45 48 39 35 35 19 10 3 10 19 29 29 23 23 16 13 10 10 6 0 0 0
26 35 35 35 35 39 39 42 42 39 29 35 39 35 35 32 39 35 45 55 52 55 52 48 42 32 19 6 3 0 16 23 23 23 19 16 16 6 6 10 10 10 6
29 35 39 35 39 39 45 48 42 35 29 29 32 32 32 39 39 42 48 52 42 39 42 39 42 39 19 6 3 0 16 26 26 23 16 16 13 6 6 10 10 10 10
32 35 32 32 29 39 45 45 32 35 32 26 26 35 39 32 35 42 39 42 45 39 39 35 32 29 23 6 0 0 13 19 19 19 13 3 3 3 3 6 16 16 16
29 29 29 29 29 29 35 39 26 29 32 32 29 29 39 39 32 39 39 39 39 42 35 29 35 26 23 6 3 0 13 13 19 13 10 6 3 0 0 0 10 10 3
23 26 29 32 32 29 35 29 32 26 29 29 32 32 32 32 29 42 35 42 39 39 29 32 32 26 16 10 3 0 0 6 13 16 13 6 3 0 0 0 0 0 0
19 23 26 29 35 32 32 32 26 23 23 26 26 29 26 26 35 32 32 35 32 32 26 23 26 26 13 6 0 0 0 0 3 3 3 3 0 0 0 0 0 0 0
26 23 23 26 32 32 26 29 23 19 19 23 26 19 23 26 26 32 32 23 19 19 23 13 10 16 13 10 6 0 0 0 0 0 0 0 0 0 0 0 0 0 0
23 26 26 26 26 29 29 23 19 19 19 19 23 23 23 13 19 19 19 19 13 13 16 16 10 13 10 6 10 6 0 0 0 0 3 0 0 0 0 0 0 3 6
19 19 23 26 26 26 26 23 19 19 19 16 16 16 16 13 10 16 10 3 6 3 3 6 3 3 3 3 0 0 0 0 0 0 3 3 3 3 6 3 3 6 6
Height
5880 5881 5881 5882 5881 5881 5880 5879 5878 5877 5876 5875 5874 5873 5872 5871 5870 5870 5869 5868 5868 5867 5866 5865 5865 5865 5864 5863 5863 5862 5862 5861 5861 5861 5861 5860 5860 5860 5860 5860 5859 5859 5859
5879 5879 5879 5879 5879 5878 5878 5877 5876 5875 5874 5873 5872 5871 5870 5869 5868 5867 5867 5866 5866 5865 5865 5864 5864 5863 5863 5862 5862 5861 5861 5860 5860 5859 5859 5859 5859 5859 5858 5858 5858 5858 5857
5877 5877 5877 5876 5876 5876 5875 5874 5874 5873 5872 5871 5869 5868 5867 5866 5866 5865 5865 5864 5864 5863 5862 5862 5862 5862 5861 5861 5860 5859 5859 5859 5859 5858 5858 5857 5857 5857 5857 5856 5857 5856 5856
5874 5874 5874 5874 5873 5873 5873 5872 5871 5870 5869 5868 5867 5866 5865 5865 5864 5863 5863 5862 5861 5861 5860 5860 5860 5860 5859 5859 5858 5858 5858 5857 5857 5857 5856 5856 5855 5856 5855 5855 5855 5855 5855
5871 5871 5871 5871 5870 5870 5869 5869 5868 5867 5866 5865 5864 5863 5863 5862 5861 5860 5860 5859 5859 5858 5858 5858 5858 5857 5857 5857 5857 5856 5856 5856 5856 5855 5854 5854 5853 5853 5853 5853 5854 5854 5853
5868 5868 5867 5867 5867 5866 5866 5865 5865 5864 5863 5862 5861 5861 5860 5859 5859 5858 5857 5856 5856 5856 5856 5856 5855 5855 5855 5855 5855 5855 5855 5854 5854 5853 5852 5852 5851 5851 5851 5851 5851 5852 5851
5864 5863 5863 5863 5863 5862 5862 5861 5861 5861 5860 5859 5858 5858 5857 5856 5855 5855 5854 5854 5853 5853 5853 5853 5853 5853 5853 5853 5853 5853 5852 5852 5851 5851 5850 5849 5849 5849 5849 5849 5849 5849 5849
5860 5859 5859 5859 5859 5858 5858 5857 5857 5857 5856 5855 5855 5855 5854 5853 5853 5852 5851 5851 5851 5851 5851 5851 5851 5851 5851 5850 5850 5850 5849 5849 5849 5848 5848 5847 5847 5846 5846 5846 5847 5847 5847
5856 5855 5855 5855 5855 5855 5854 5854 5853 5852 5852 5852 5851 5851 5850 5850 5849 5849 5848 5848 5848 5848 5848 5848 5848 5848 5848 5848 5847 5847 5846 5846 5846 5845 5845 5844 5844 5843 5843 5843 5844 5844 5843
5850 5850 5849 5850 5850 5850 5850 5850 5849 5848 5848 5848 5847 5847 5847 5846 5845 5845 5845 5845 5844 5845 5845 5845 5845 5845 5845 5845 5844 5844 5843 5843 5843 5843 5842 5841 5840 5840 5840 5840 5840 5839 5840
5845 5845 5845 5845 5845 5844 5844 5845 5844 5844 5843 5843 5843 5843 5843 5842 5842 5841 5841 5841 5841 5841 5841 5841 5842 5842 5842 5842 5842 5841 5840 5840 5840 5839 5839 5838 5838 5837 5837 5836 5836 5836 5836
5839 5840 5840 5839 5840 5840 5839 5839 5839 5839 5839 5839 5839 5838 5838 5838 5838 5837 5837 5837 5837 5837 5838 5838 5838 5838 5838 5838 5838 5837 5837 5837 5837 5836 5835 5835 5834 5834 5833 5832 5832 5832 5831
5833 5834 5835 5835 5835 5834 5833 5833 5834 5834 5834 5834 5834 5834 5834 5834 5833 5833 5833 5833 5833 5833 5833 5834 5834 5834 5834 5834 5834 5833 5833 5833 5832 5832 5831 5831 5830 5830 5829 5829 5828 5828 5827
5828 5829 5830 5830 5830 5829 5829 5829 5829 5828 5828 5828 5828 5828 5829 5829 5828 5828 5828 5828 5829 5829 5829 5829 5830 5830 5830 5830 5830 5829 5829 5829 5828 5828 5827 5826 5826 5825 5825 5824 5823 5823 5822
5822 5823 5824 5824 5824 5824 5823 5823 5823 5822 5822 5822 5822 5822 5823 5823 5823 5823 5823 5823 5823 5824 5824 5824 5825 5825 5825 5825 5825 5825 5824 5824 5824 5823 5822 5822 5821 5821 5820 5819 5818 5817 5817
5817 5817 5818 5818 5818 5818 5818 5817 5818 5817 5817 5816 5817 5817 5817 5817 5817 5817 5817 5817 5817 5818 5818 5819 5819 5819 5819 5819 5819 5819 5819 5819 5818 5818 5818 5817 5817 5815 5814 5813 5812 5811 5810
5812 5811 5812 5812 5812 5812 5811 5811 5811 5811 5810 5810 5811 5811 5811 5810 5811 5811 5811 5811 5811 5811 5812 5812 5812 5813 5813 5813 5813 5813 5813 5813 5812 5812 5812 5811 5811 5810 5808 5807 5806 5805 5804
5805 5805 5805 5805 5805 5805 5805 5805 5804 5803 5803 5803 5804 5804 5804 5804 5804 5804 5804 5804 5804 5805 5805 5805 5806 5806 5806 5806 5807 5806 5806 5806 5806 5806 5805 5805 5804 5803 5802 5800 5800 5799 5798
5799 5799 5799 5798 5798 5798 5798 5798 5798 5797 5797 5797 5796 5797 5797 5797 5797 5797 5797 5797 5798 5798 5798 5798 5798 5799 5800 5800 5800 5800 5799 5799 5799 5799 5798 5798 5797 5796 5795 5793 5792 5791 5790
5792 5792 5792 5791 5791 5791 5791 5791 5791 5791 5790 5789 5789 5790 5790 5790 5790 5790 5790 5790 5790 5791 5791 5792 5791 5792 5793 5793 5793 5793 5793 5793 5793 5792 5791 5790 5790 5789 5787 5786 5785 5784 5783
5784 5784 5784 5784 5784 5784 5784 5784 5784 5784 5783 5783 5783 5783 5783 5783 5783 5782 5782 5782 5782 5783 5784 5784 5784 5784 5785 5786 5786 5786 5786 5785 5785 5784 5783 5783 5782 5781 5780 5778 5777 5776 5775
5777 5777 5777 5777 5777 5776 5777 5776 5776 5776 5776 5776 5776 5776 5776 5775 5775 5775 5774 5774 5774 5775 5776 5776 5777 5777 5777 5778 5778 5778 5778 5778 5777 5776 5775 5775 5774 5773 5772 5771 5769 5768 5767
5770 5770 5770 5769 5769 5769 5769 5769 5768 5768 5768 5768 5768 5768 5768 5768 5767 5767 5767 5766 5767 5767 5768 5768 5769 5769 5770 5770 5770 5770 5770 5770 5769 5768 5768 5767 5766 5765 5764 5762 5761 5760 5758
5763 5762 5762 5762 5762 5762 5762 5761 5761 5760 5760 5760 5760 5760 5760 5760 5760 5759 5759 5759 5759 5759 5760 5760 5760 5761 5762 5762 5762 5762 5762 5762 5761 5760 5760 5759 5758 5756 5755 5754 5752 5751 5750
5756 5755 5755 5755 5755 5754 5754 5754 5754 5753 5753 5753 5753 5752 5752 5752 5752 5751 5751 5751 5751 5751 5751 5751 5751 5752 5753 5753 5753 5753 5753 5753 5753 5752 5751 5750 5749 5748 5747 5746 5744 5742 5741
5748 5748 5748 5747 5747 5747 5747 5747 5746 5746 5745 5745 5745 5744 5744 5744 5744 5743 5743 5743 5743 5742 5742 5742 5743 5743 5744 5744 5744 5744 5744 5744 5743 5743 5743 5742 5741 5740 5738 5737 5735 5734 5732
Wind_Speed
14 15 15 14 14 15 14 14 14 15 15 14 14 14 13 12 11 10 10 9 9 9 9 9 8 8 8 8 8 8 8 8 8 8 7 7 8 8 8 8 9 9 8
15 16 16 15 15 15 15 15 15 16 16 15 15 14 13 12 11 11 10 10 10 11 10 10 9 9 9 9 9 9 9 9 9 9 9 8 8 8 9 9 9 9 8
16 17 16 16 16 16 16 16 16 17 17 16 16 14 13 12 12 11 11 11 11 12 11 10 10 10 10 10 10 10 10 10 10 9 9 9 9 9 9 9 9 9 8
18 18 17 17 17 17 17 17 17 17 17 17 16 15 14 13 13 13 13 12 12 12 12 11 11 10 10 10 10 10 10 10 10 10 9 9 10 10 9 10 9 8 8
18 18 18 18 18 18 17 17 17 17 17 16 15 15 14 14 14 14 13 13 12 12 12 12 12 11 10 10 10 10 10 10 10 11 11 10 11 11 10 9 9 9 8
19 18 18 19 19 18 18 18 17 17 16 15 15 15 14 15 15 15 14 13 13 12 12 12 11 11 11 10 10 10 10 10 11 11 11 11 11 11 10 10 9 9 9
20 20 19 18 18 19 19 18 17 17 16 15 15 15 14 14 14 14 14 13 13 12 12 12 12 11 11 11 11 11 11 11 12 12 12 12 11 11 11 10 9 10 9
21 20 20 19 19 19 19 18 18 17 16 15 15 15 15 15 15 14 14 14 14 13 13 13 12 12 12 13 13 13 13 13 13 13 13 12 12 11 10 10 10 10 10
22 21 20 20 19 19 20 19 19 17 16 16 16 15 15 16 15 15 15 15 14 14 14 13 12 12 13 14 14 14 14 13 14 14 14 13 13 12 11 11 11 12 12
23 22 21 20 20 20 20 20 19 18 18 17 17 16 16 16 16 16 16 16 16 16 16 15 13 13 14 15 15 15 14 14 14 13 13 13 12 11 12 13 13 13 13
23 23 21 21 21 21 20 20 20 20 19 19 18 18 17 17 17 17 17 17 17 17 16 15 15 15 15 15 15 14 14 14 14 13 13 13 13 13 13 13 14 14 14
22 22 22 22 21 21 21 20 20 20 20 20 19 19 19 18 18 18 18 18 17 17 17 17 16 17 17 16 16 16 15 14 14 14 14 15 14 15 15 14 15 15 15
21 21 22 22 22 22 22 21 21 21 21 21 21 21 21 20 20 19 19 19 19 18 18 18 18 18 18 18 17 17 16 16 16 16 16 15 15 15 16 16 16 17 17
22 22 23 23 23 23 23 23 22 22 22 22 22 22 22 22 21 21 21 21 20 20 20 20 20 20 19 20 19 19 18 17 17 17 17 16 16 16 17 17 18 18 19
25 23 23 24 24 24 24 24 25 24 24 23 23 23 23 23 23 23 23 22 22 22 22 22 22 22 21 21 21 21 20 20 19 19 18 17 18 19 19 20 20 20 20
26 25 25 24 24 25 25 26 26 26 25 24 24 23 24 24 24 24 24 23 23 23 24 24 24 23 23 22 22 22 22 22 21 21 21 21 20 20 21 22 22 22 22
26 27 26 26 25 26 27 27 26 26 27 26 26 25 25 25 25 25 24 25 25 25 25 25 25 24 24 24 23 23 23 23 23 23 23 23 23 23 23 23 23 24 25
27 27 27 27 27 27 27 27 27 27 26 26 26 26 25 25 25 25 25 26 26 26 25 25 25 25 23 23 23 23 24 24 24 24 24 24 24 24 25 25 25 25 26
28 28 27 27 26 26 26 26 26 26 27 26 26 25 25 25 26 26 27 26 26 26 26 25 25 24 23 23 23 24 24 25 25 25 26 26 26 26 27 27 27 27 26
27 28 27 27 27 27 27 27 26 26 27 27 26 26 26 26 26 27 27 27 27 27 25 26 25 24 24 24 24 24 25 25 25 26 26 26 26 27 27 27 27 27 27
26 26 26 27 27 27 27 27 27 27 27 28 28 28 28 28 27 27 27 28 28 27 26 25 24 24 24 25 25 25 26 27 27 27 26 26 27 27 27 28 28 27 27
26 26 26 27 27 27 27 27 27 28 28 28 28 28 28 28 28 27 27 28 29 28 28 27 26 25 25 26 27 27 27 27 27 27 27 27 27 27 27 28 28 28 28
27 27 27 27 27 27 27 28 28 28 29 28 28 28 28 28 27 27 27 28 29 29 28 27 27 27 27 28 28 28 28 28 28 28 28 27 27 28 28 28 29 29 28
26 27 27 26 26 26 27 27 27 28 28 28 28 28 28 28 28 28 28 27 28 29 29 28 28 28 28 28 29 29 29 29 28 28 28 28 28 29 29 29 30 30 29
26 26 26 26 26 26 26 26 27 27 27 27 27 27 28 27 27 27 27 27 27 27 28 28 29 28 29 29 30 29 29 30 30 30 30 29 29 30 31 30 30 30 30
25 26 26 25 26 26 25 25 25 25 26 26 26 26 26 26 26 26 27 27 27 27 27 28 29 29 29 29 29 29 30 29 30 31 31 31 31 31 31 30 30 31 31
Wind_Direction
287 291 292 294 295 296 299 300 302 306 308 307 304 299 297 297 298 297 296 295 296 300 301 302 303 306 310 305 302 307 307 305 302 299 292 292 290 286 282 283 286 285 286
282 288 290 291 293 296 300 299 301 304 305 304 301 300 295 293 296 295 292 292 291 293 295 296 298 297 299 301 300 299 301 301 301 298 296 292 289 294 291 288 289 291 292
279 283 285 288 292 295 298 299 300 301 302 302 301 300 299 295 293 292 290 291 293 293 293 292 293 294 294 297 300 297 298 300 298 296 295 289 283 294 293 291 290 290 292
280 281 281 283 289 292 294 297 298 299 300 300 300 300 298 296 295 294 292 289 292 294 294 293 292 293 294 299 301 299 298 300 300 299 297 294 294 297 297 295 290 290 295
279 280 279 281 283 287 291 294 297 298 297 298 299 299 296 294 294 294 292 288 288 288 290 294 295 293 296 299 305 306 304 301 302 303 299 294 297 297 292 294 288 288 292
277 279 280 282 281 283 287 291 294 295 295 295 296 297 296 295 295 295 293 288 287 286 288 289 291 292 295 297 300 302 303 306 306 304 300 294 291 290 287 292 290 289 289
275 278 279 281 281 284 286 290 292 293 292 292 293 294 295 295 295 293 291 288 287 287 287 287 288 291 295 294 295 296 298 302 305 305 302 297 291 285 283 287 289 287 287
275 274 276 278 279 281 284 285 286 289 290 289 289 290 292 294 294 290 289 288 285 283 288 290 288 289 291 292 294 294 292 294 300 302 300 297 291 287 288 284 284 286 285
275 275 273 274 277 279 281 284 285 285 286 287 287 287 290 293 291 287 286 286 285 284 286 290 290 291 293 294 294 294 291 293 294 296 298 298 297 291 286 284 284 283 284
272 273 269 268 272 275 277 278 280 280 282 283 285 285 287 288 289 287 284 283 284 283 282 285 287 288 291 293 293 294 293 292 294 296 299 301 301 291 285 283 284 285 285
271 272 273 269 270 271 271 274 276 277 279 280 281 283 284 285 286 285 283 281 282 282 282 284 285 286 289 292 292 294 294 292 293 296 297 298 296 293 295 287 284 285 286
270 272 271 270 269 270 271 271 273 275 277 277 277 279 281 282 284 284 282 280 280 280 280 282 284 285 286 290 291 291 290 288 291 294 297 299 295 291 293 289 286 286 286
273 272 269 269 269 271 271 271 271 272 274 276 276 276 278 280 281 283 281 278 278 277 277 279 282 284 285 287 289 289 287 286 288 290 292 294 294 291 291 290 288 287 285
271 271 270 268 268 270 271 272 273 271 271 273 274 275 275 277 278 278 279 277 276 277 277 279 281 283 284 284 286 286 285 285 287 288 288 290 290 289 291 291 290 288 286
272 271 271 269 268 269 270 271 273 273 274 271 271 272 273 274 276 276 276 274 273 275 277 280 280 281 282 283 283 282 283 284 285 285 285 285 287 290 291 291 290 290 288
271 273 272 272 270 269 269 269 272 274 274 274 273 273 273 273 274 274 274 273 274 275 276 278 278 279 280 281 280 281 281 282 282 282 282 284 286 287 289 290 290 290 290
271 272 273 272 271 271 272 272 273 274 273 271 273 273 273 273 274 274 274 272 274 274 274 276 276 277 279 279 279 279 279 280 280 281 282 283 284 285 287 288 289 289 288
271 272 274 275 274 272 272 273 273 271 273 272 270 270 273 274 274 273 273 274 275 276 275 275 274 275 276 277 276 277 280 280 281 282 282 282 282 285 286 287 287 288 287
271 271 273 274 273 273 272 272 272 272 273 271 269 270 273 274 274 274 273 273 274 274 273 275 275 275 274 275 276 276 278 279 281 281 282 280 283 286 287 287 286 285 284
272 271 271 271 272 272 272 271 271 271 271 271 271 271 273 275 276 274 273 272 271 271 272 273 273 272 273 275 276 276 278 279 280 282 284 282 284 286 287 288 287 286 286
272 271 271 272 273 272 270 270 270 270 271 271 272 272 272 274 275 275 273 271 270 269 270 271 272 272 273 275 276 277 278 280 281 282 282 283 284 285 286 287 287 286 287
272 271 271 272 272 271 270 271 271 270 270 271 271 272 272 273 274 274 273 272 270 269 269 270 272 273 275 275 276 277 279 280 282 282 282 283 285 287 287 287 287 287 287
271 272 273 273 273 272 272 271 271 272 272 272 272 272 271 271 273 273 273 273 271 271 272 271 271 272 275 277 276 277 278 279 280 281 280 281 284 285 286 286 286 286 287
272 273 273 272 271 272 273 273 273 272 272 272 271 270 270 271 272 273 272 273 272 272 273 272 271 272 274 275 276 277 277 277 279 281 281 282 284 284 286 286 287 287 288
273 273 273 272 271 271 273 273 274 273 271 271 272 271 272 271 271 272 273 273 274 273 274 273 273 272 273 275 275 276 277 277 279 282 282 282 283 284 285 286 287 288 288
274 273 273 273 272 272 272 273 274 275 274 273 274 274 273 273 272 272 272 273 274 274 274 274 275 275 275 274 275 276 276 277 279 280 281 281 282 283 285 286 288 288 288